#Datum;Uhrzeit;WR;Pac;DaySum;Status;WR;Pac;DaySum;Status;Pdc1;Udc;Temp;WR;Pac;DaySum;Status;Pdc1;Udc;Temp;WR;Pac;DaySum;Status;Pdc1;Udc;Temp;WR;Pac;DaySum;Status;Pdc1;Pdc2;Udc1;Udc2;Temp;WR;Pac;DaySum;Status;Pdc1;Pdc2;Udc1;Udc2;Temp;WR;Pac;DaySum;Status;Pdc1;Udc;Temp;WR;Pac;DaySum;Status;Pdc1;Udc;Temp;WR;Pac;DaySum;Status;Pdc1;Udc;Temp
20.03.20;23:55:00;1;305;14394;0;2;0;28744;0;0;0;0;3;0;18343;0;0;0;0;4;0;27904;0;0;0;0;5;0;65628;0;0;0;0;0;0;6;0;49608;0;0;0;0;0;0;7;0;40641;0;0;0;0;8;0;40099;0;0;0;0;9;0;21942;0;0;0;0
20.03.20;23:50:00;1;316;14368;0;2;0;28744;0;0;0;0;3;0;18343;0;0;0;0;4;0;27904;0;0;0;0;5;0;65628;0;0;0;0;0;0;6;0;49608;0;0;0;0;0;0;7;0;40641;0;0;0;0;8;0;40099;0;0;0;0;9;0;21942;0;0;0;0
20.03.20;23:45:00;1;396;14341;0;2;0;28744;0;0;0;0;3;0;18343;0;0;0;0;4;0;27904;0;0;0;0;5;0;65628;0;0;0;0;0;0;6;0;49608;0;0;0;0;0;0;7;0;40641;0;0;0;0;8;0;40099;0;0;0;0;9;0;21942;0;0;0;0
20.03.20;23:40:00;1;322;14309;0;2;0;28744;0;0;0;0;3;0;18343;0;0;0;0;4;0;27904;0;0;0;0;5;0;65628;0;0;0;0;0;0;6;0;49608;0;0;0;0;0;0;7;0;40641;0;0;0;0;8;0;40099;0;0;0;0;9;0;21942;0;0;0;0
20.03.20;23:35:00;1;306;14281;0;2;0;28744;0;0;0;0;3;0;18343;0;0;0;0;4;0;27904;0;0;0;0;5;0;65628;0;0;0;0;0;0;6;0;49608;0;0;0;0;0;0;7;0;40641;0;0;0;0;8;0;40099;0;0;0;0;9;0;21942;0;0;0;0
20.03.20;23:30:00;1;313;14256;0;2;0;28744;0;0;0;0;3;0;18343;0;0;0;0;4;0;27904;0;0;0;0;5;0;65628;0;0;0;0;0;0;6;0;49608;0;0;0;0;0;0;7;0;40641;0;0;0;0;8;0;40099;0;0;0;0;9;0;21942;0;0;0;0
20.03.20;23:25:00;1;294;14229;0;2;0;28744;0;0;0;0;3;0;18343;0;0;0;0;4;0;27904;0;0;0;0;5;0;65628;0;0;0;0;0;0;6;0;49608;0;0;0;0;0;0;7;0;40641;0;0;0;0;8;0;40099;0;0;0;0;9;0;21942;0;0;0;0
20.03.20;23:20:00;1;281;14205;0;2;0;28744;0;0;0;0;3;0;18343;0;0;0;0;4;0;27904;0;0;0;0;5;0;65628;0;0;0;0;0;0;6;0;49608;0;0;0;0;0;0;7;0;40641;0;0;0;0;8;0;40099;0;0;0;0;9;0;21942;0;0;0;0
20.03.20;23:15:00;1;317;14181;0;2;0;28744;0;0;0;0;3;0;18343;0;0;0;0;4;0;27904;0;0;0;0;5;0;65628;0;0;0;0;0;0;6;0;49608;0;0;0;0;0;0;7;0;40641;0;0;0;0;8;0;40099;0;0;0;0;9;0;21942;0;0;0;0
20.03.20;23:10:00;1;276;14155;0;2;0;28744;0;0;0;0;3;0;18343;0;0;0;0;4;0;27904;0;0;0;0;5;0;65628;0;0;0;0;0;0;6;0;49608;0;0;0;0;0;0;7;0;40641;0;0;0;0;8;0;40099;0;0;0;0;9;0;21942;0;0;0;0
20.03.20;23:05:00;1;320;14131;0;2;0;28744;0;0;0;0;3;0;18343;0;0;0;0;4;0;27904;0;0;0;0;5;0;65628;0;0;0;0;0;0;6;0;49608;0;0;0;0;0;0;7;0;40641;0;0;0;0;8;0;40099;0;0;0;0;9;0;21942;0;0;0;0
20.03.20;23:00:00;1;317;14105;0;2;0;28744;0;0;0;0;3;0;18343;0;0;0;0;4;0;27904;0;0;0;0;5;0;65628;0;0;0;0;0;0;6;0;49608;0;0;0;0;0;0;7;0;40641;0;0;0;0;8;0;40099;0;0;0;0;9;0;21942;0;0;0;0
20.03.20;22:55:00;1;363;14078;0;2;0;28744;0;0;0;0;3;0;18343;0;0;0;0;4;0;27904;0;0;0;0;5;0;65628;2;0;0;0;0;0;6;0;49608;2;0;0;0;0;0;7;0;40641;0;0;0;0;8;0;40099;0;0;0;0;9;0;21942;0;0;0;0
20.03.20;22:50:00;1;433;14047;0;2;0;28744;0;0;0;0;3;0;18343;0;0;0;0;4;0;27904;0;0;0;0;5;0;65628;2;0;0;0;0;0;6;0;49608;2;0;0;0;0;0;7;0;40641;0;0;0;0;8;0;40099;0;0;0;0;9;0;21942;0;0;0;0
20.03.20;22:45:00;1;366;14014;0;2;0;28744;0;0;0;0;3;0;18343;0;0;0;0;4;0;27904;0;0;0;0;5;0;65628;2;0;0;0;0;0;6;0;49608;2;0;0;0;0;0;7;0;40641;0;0;0;0;8;0;40099;0;0;0;0;9;0;21942;0;0;0;0
20.03.20;22:40:00;1;340;13984;0;2;0;28744;0;0;0;0;3;0;18343;0;0;0;0;4;0;27904;0;0;0;0;5;0;65628;2;0;0;0;0;0;6;0;49608;2;0;0;0;0;0;7;0;40641;0;0;0;0;8;0;40099;0;0;0;0;9;0;21942;0;0;0;0
20.03.20;22:35:00;1;341;13955;0;2;0;28744;0;0;0;0;3;0;18343;0;0;0;0;4;0;27904;0;0;0;0;5;0;65628;2;0;0;0;0;0;6;0;49608;2;0;0;0;0;0;7;0;40641;0;0;0;0;8;0;40099;0;0;0;0;9;0;21942;0;0;0;0
20.03.20;22:30:00;1;341;13927;0;2;0;28744;0;0;0;0;3;0;18343;0;0;0;0;4;0;27904;0;0;0;0;5;0;65628;2;0;0;0;0;0;6;0;49608;2;0;0;0;0;0;7;0;40641;0;0;0;0;8;0;40099;0;0;0;0;9;0;21942;0;0;0;0
20.03.20;22:25:00;1;345;13898;0;2;0;28744;0;0;0;0;3;0;18343;0;0;0;0;4;0;27904;0;0;0;0;5;0;65628;2;0;0;0;0;0;6;0;49608;2;0;0;0;0;0;7;0;40641;0;0;0;0;8;0;40099;0;0;0;0;9;0;21942;0;0;0;0
20.03.20;22:20:00;1;380;13869;0;2;0;28744;0;0;0;0;3;0;18343;0;0;0;0;4;0;27904;0;0;0;0;5;0;65628;2;0;0;0;0;0;6;0;49608;2;0;0;0;0;0;7;0;40641;0;0;0;0;8;0;40099;0;0;0;0;9;0;21942;0;0;0;0
20.03.20;22:15:00;1;336;13839;0;2;0;28744;0;0;0;0;3;0;18343;0;0;0;0;4;0;27904;0;0;0;0;5;0;65628;2;0;0;0;0;0;6;0;49608;2;0;0;0;0;0;7;0;40641;0;0;0;0;8;0;40099;0;0;0;0;9;0;21942;0;0;0;0
20.03.20;22:10:00;1;314;13812;0;2;0;28744;0;0;0;0;3;0;18343;0;0;0;0;4;0;27904;0;0;0;0;5;0;65628;2;0;0;0;0;0;6;0;49608;2;0;0;0;0;0;7;0;40641;0;0;0;0;8;0;40099;0;0;0;0;9;0;21942;0;0;0;0
20.03.20;22:05:00;1;316;13786;0;2;0;28744;0;0;0;0;3;0;18343;0;0;0;0;4;0;27904;0;0;0;0;5;0;65628;2;0;0;0;0;0;6;0;49608;2;0;0;0;0;0;7;0;40641;0;0;0;0;8;0;40099;0;0;0;0;9;0;21942;0;0;0;0
20.03.20;22:00:00;1;321;13759;0;2;0;28744;0;0;0;0;3;0;18343;0;0;0;0;4;0;27904;0;0;0;0;5;0;65628;2;0;0;0;0;0;6;0;49608;2;0;0;0;0;0;7;0;40641;0;0;0;0;8;0;40099;0;0;0;0;9;0;21942;0;0;0;0
20.03.20;21:55:00;1;281;13732;0;2;0;28744;0;0;0;0;3;0;18343;0;0;0;0;4;0;27904;0;0;0;0;5;0;65628;2;0;0;0;0;0;6;0;49608;2;0;0;0;0;0;7;0;40641;0;0;0;0;8;0;40099;0;0;0;0;9;0;21942;0;0;0;0
20.03.20;21:50:00;1;328;13709;0;2;0;28744;0;0;0;0;3;0;18343;0;0;0;0;4;0;27904;0;0;0;0;5;0;65628;2;0;0;0;0;0;6;0;49608;2;0;0;0;0;0;7;0;40641;0;0;0;0;8;0;40099;0;0;0;0;9;0;21942;0;0;0;0
20.03.20;21:45:00;1;334;13681;0;2;0;28744;0;0;0;0;3;0;18343;0;0;0;0;4;0;27904;0;0;0;0;5;0;65628;2;0;0;0;0;0;6;0;49608;2;0;0;0;0;0;7;0;40641;0;0;0;0;8;0;40099;0;0;0;0;9;0;21942;0;0;0;0
20.03.20;21:40:00;1;282;13657;0;2;0;28744;0;0;0;0;3;0;18343;0;0;0;0;4;0;27904;0;0;0;0;5;0;65628;2;0;0;0;0;0;6;0;49608;2;0;0;0;0;0;7;0;40641;0;0;0;0;8;0;40099;0;0;0;0;9;0;21942;0;0;0;0
20.03.20;21:35:00;1;282;13633;0;2;0;28744;0;0;0;0;3;0;18343;0;0;0;0;4;0;27904;0;0;0;0;5;0;65628;2;0;0;0;0;0;6;0;49608;2;0;0;0;0;0;7;0;40641;0;0;0;0;8;0;40099;0;0;0;0;9;0;21942;0;0;0;0
20.03.20;21:30:00;1;369;13610;0;2;0;28744;0;0;0;0;3;0;18343;0;0;0;0;4;0;27904;0;0;0;0;5;0;65628;2;0;0;0;0;0;6;0;49608;2;0;0;0;0;0;7;0;40641;0;0;0;0;8;0;40099;0;0;0;0;9;0;21942;0;0;0;0
20.03.20;21:25:00;1;430;13578;0;2;0;28744;0;0;0;0;3;0;18343;0;0;0;0;4;0;27904;0;0;0;0;5;0;65628;2;0;0;0;0;0;6;0;49608;2;0;0;0;0;0;7;0;40641;0;0;0;0;8;0;40099;0;0;0;0;9;0;21942;0;0;0;0
20.03.20;21:20:00;1;515;13542;0;2;0;28744;0;0;0;0;3;0;18343;0;0;0;0;4;0;27904;0;0;0;0;5;0;65628;2;0;0;0;0;0;6;0;49608;2;0;0;0;0;0;7;0;40641;0;0;0;0;8;0;40099;0;0;0;0;9;0;21942;0;0;0;0
20.03.20;21:15:00;1;489;13499;0;2;0;28744;0;0;0;0;3;0;18343;0;0;0;0;4;0;27904;0;0;0;0;5;0;65628;2;0;0;0;0;0;6;0;49608;2;0;0;0;0;0;7;0;40641;0;0;0;0;8;0;40099;0;0;0;0;9;0;21942;0;0;0;0
20.03.20;21:10:00;1;515;13458;0;2;0;28744;0;0;0;0;3;0;18343;0;0;0;0;4;0;27904;0;0;0;0;5;0;65628;2;0;0;0;0;0;6;0;49608;2;0;0;0;0;0;7;0;40641;0;0;0;0;8;0;40099;0;0;0;0;9;0;21942;0;0;0;0
20.03.20;21:05:00;1;537;13412;0;2;0;28744;0;0;0;0;3;0;18343;0;0;0;0;4;0;27904;0;0;0;0;5;0;65628;2;0;0;0;0;0;6;0;49608;2;0;0;0;0;0;7;0;40641;0;0;0;0;8;0;40099;0;0;0;0;9;0;21942;0;0;0;0
20.03.20;21:00:00;1;533;13367;0;2;0;28744;0;0;0;0;3;0;18343;0;0;0;0;4;0;27904;0;0;0;0;5;0;65628;2;0;0;0;0;0;6;0;49608;2;0;0;0;0;0;7;0;40641;0;0;0;0;8;0;40099;0;0;0;0;9;0;21942;0;0;0;0
20.03.20;20:55:00;1;534;13323;0;2;0;28744;0;0;0;0;3;0;18343;0;0;0;0;4;0;27904;0;0;0;0;5;0;65628;2;0;0;0;0;0;6;0;49608;2;0;0;0;0;0;7;0;40641;0;0;0;0;8;0;40099;0;0;0;0;9;0;21942;0;0;0;0
20.03.20;20:50:00;1;591;13278;0;2;0;28744;0;0;0;0;3;0;18343;0;0;0;0;4;0;27904;0;0;0;0;5;0;65628;2;0;0;0;0;0;6;0;49608;2;0;0;0;0;0;7;0;40641;0;0;0;0;8;0;40099;0;0;0;0;9;0;21942;0;0;0;0
20.03.20;20:45:00;1;460;13229;0;2;0;28744;0;0;0;0;3;0;18343;0;0;0;0;4;0;27904;0;0;0;0;5;0;65628;2;0;0;0;0;0;6;0;49608;2;0;0;0;0;0;7;0;40641;0;0;0;0;8;0;40099;0;0;0;0;9;0;21942;0;0;0;0
20.03.20;20:40:00;1;347;13194;0;2;0;28744;0;0;0;0;3;0;18343;0;0;0;0;4;0;27904;0;0;0;0;5;0;65628;2;0;0;0;0;0;6;0;49608;2;0;0;0;0;0;7;0;40641;0;0;0;0;8;0;40099;0;0;0;0;9;0;21942;0;0;0;0
20.03.20;20:35:00;1;351;13165;0;2;0;28744;0;0;0;0;3;0;18343;0;0;0;0;4;0;27904;0;0;0;0;5;0;65628;2;0;0;0;0;0;6;0;49608;2;0;0;0;0;0;7;0;40641;0;0;0;0;8;0;40099;0;0;0;0;9;0;21942;0;0;0;0
20.03.20;20:30:00;1;388;13135;0;2;0;28744;0;0;0;0;3;0;18343;0;0;0;0;4;0;27904;0;0;0;0;5;0;65628;2;0;0;0;0;0;6;0;49608;2;0;0;0;0;0;7;0;40641;0;0;0;0;8;0;40099;0;0;0;0;9;0;21942;0;0;0;0
20.03.20;20:25:00;1;330;13104;0;2;0;28744;0;0;0;0;3;0;18343;0;0;0;0;4;0;27904;0;0;0;0;5;0;65628;2;0;0;0;0;0;6;0;49608;2;0;0;0;0;0;7;0;40641;0;0;0;0;8;0;40099;0;0;0;0;9;0;21942;0;0;0;0
20.03.20;20:20:00;1;358;13075;0;2;0;28744;0;0;0;0;3;0;18343;0;0;0;0;4;0;27904;0;0;0;0;5;0;65628;2;0;0;0;0;0;6;0;49608;2;0;0;0;0;0;7;0;40641;0;0;0;0;8;0;40099;0;0;0;0;9;0;21942;0;0;0;0
20.03.20;20:15:00;1;292;13045;0;2;0;28744;0;0;0;0;3;0;18343;0;0;0;0;4;0;27904;0;0;0;0;5;0;65628;2;0;0;0;0;0;6;0;49608;2;0;0;0;0;0;7;0;40641;0;0;0;0;8;0;40099;0;0;0;0;9;0;21942;0;0;0;0
20.03.20;20:10:00;1;279;13020;0;2;0;28744;0;0;0;0;3;0;18343;0;0;0;0;4;0;27904;0;0;0;0;5;0;65628;2;0;0;0;0;0;6;0;49608;2;0;0;0;0;0;7;0;40641;0;0;0;0;8;0;40099;0;0;0;0;9;0;21942;0;0;0;0
20.03.20;20:05:00;1;319;12997;0;2;0;28744;0;0;0;0;3;0;18343;0;0;0;0;4;0;27904;0;0;0;0;5;0;65628;2;0;0;0;0;0;6;0;49608;2;0;0;0;0;0;7;0;40641;0;0;0;0;8;0;40099;0;0;0;0;9;0;21942;0;0;0;0
20.03.20;20:00:00;1;351;12969;0;2;0;28744;0;0;0;0;3;0;18343;0;0;0;0;4;0;27904;0;0;0;0;5;0;65628;2;0;0;0;0;0;6;0;49608;2;0;0;0;0;0;7;0;40641;0;0;0;0;8;0;40099;0;0;0;0;9;0;21942;0;0;0;0
20.03.20;19:55:00;1;646;12940;0;2;0;28744;0;0;0;0;3;0;18343;0;0;0;0;4;0;27904;0;0;0;0;5;0;65628;2;0;0;0;0;0;6;0;49608;2;0;0;0;0;0;7;0;40641;0;0;0;0;8;0;40099;0;0;0;0;9;0;21942;0;0;0;0
20.03.20;19:50:00;1;371;12882;0;2;0;28744;0;0;0;0;3;0;18343;0;0;0;0;4;0;27904;0;0;0;0;5;0;65628;2;0;0;0;0;0;6;0;49608;2;0;0;0;0;0;7;0;40641;0;0;0;0;8;0;40099;0;0;0;0;9;0;21942;0;0;0;0
20.03.20;19:45:00;1;2267;12840;0;2;0;28744;0;0;0;0;3;0;18343;0;0;0;0;4;0;27904;0;0;0;0;5;0;65628;2;0;0;0;0;0;6;0;49608;2;0;0;0;0;0;7;0;40641;0;0;0;0;8;0;40099;0;0;0;0;9;0;21942;0;0;0;0
20.03.20;19:40:00;1;2333;12655;0;2;0;28744;0;0;0;0;3;0;18343;0;0;0;0;4;0;27904;0;0;0;0;5;0;65628;2;0;0;0;0;0;6;0;49608;2;0;0;0;0;0;7;0;40641;0;0;0;0;8;0;40099;0;0;0;0;9;0;21942;0;0;0;0
20.03.20;19:35:00;1;2390;12434;0;2;0;28744;0;0;0;0;3;0;18343;0;0;0;0;4;0;27904;0;0;0;0;5;0;65628;2;0;0;0;0;0;6;0;49608;2;0;0;0;0;0;7;0;40641;0;0;0;0;8;0;40099;0;0;0;0;9;0;21942;0;0;0;0
20.03.20;19:30:00;1;1705;12290;0;2;0;28744;0;0;0;0;3;0;18343;0;0;0;0;4;0;27904;0;0;0;0;5;0;65628;2;0;0;0;0;0;6;0;49608;2;0;0;0;0;0;7;0;40641;0;0;0;0;8;0;40099;0;0;0;0;9;0;21942;0;0;0;0
20.03.20;19:25:00;1;1010;12128;0;2;0;28744;0;0;0;0;3;0;18343;0;0;0;0;4;0;27904;0;0;0;0;5;0;65628;2;0;0;0;0;0;6;0;49608;2;0;0;0;0;0;7;0;40641;0;0;0;0;8;0;40099;0;0;0;0;9;0;21942;0;0;0;0
20.03.20;19:20:00;1;993;12068;0;2;0;28744;0;0;0;0;3;0;18343;0;0;0;0;4;0;27904;0;0;0;0;5;0;65628;2;0;0;0;0;0;6;0;49608;2;0;0;0;0;0;7;0;40641;0;0;0;0;8;0;40099;0;0;0;0;9;0;21942;0;0;0;0
20.03.20;19:15:00;1;787;11999;0;2;0;28744;0;0;0;0;3;0;18343;0;0;0;0;4;0;27904;0;0;0;0;5;0;65628;2;0;0;0;0;0;6;0;49608;2;0;0;0;0;0;7;0;40641;0;0;0;0;8;0;40099;0;0;0;0;9;0;21942;0;0;0;0
20.03.20;19:10:00;1;2889;11912;0;2;0;28744;0;0;0;0;3;0;18343;0;0;0;0;4;0;27904;0;0;0;0;5;0;65628;2;0;0;0;0;0;6;0;49608;2;0;0;0;0;0;7;0;40641;0;0;0;0;8;0;40099;0;0;0;0;9;0;21942;0;0;0;0
20.03.20;19:05:00;1;1110;11725;0;2;0;28744;0;0;0;0;3;0;18343;0;0;0;0;4;0;27904;0;0;0;0;5;0;65628;2;0;0;0;0;0;6;0;49608;2;0;0;0;0;0;7;0;40641;0;0;0;0;8;0;40099;0;0;0;0;9;0;21942;0;0;0;0
20.03.20;19:00:00;1;3121;11596;0;2;0;28744;0;0;0;0;3;0;18343;0;0;0;0;4;0;27904;0;0;0;0;5;0;65628;2;0;0;0;0;0;6;0;49608;2;0;0;0;0;0;7;0;40641;0;0;0;0;8;0;40099;0;0;0;0;9;0;21942;0;0;0;0
20.03.20;18:55:00;1;2062;11362;0;2;0;28744;0;0;0;0;3;0;18343;0;0;0;0;4;0;27904;0;0;0;0;5;0;65628;2;0;0;0;0;0;6;0;49608;2;0;0;0;0;0;7;0;40641;0;0;0;0;8;0;40099;0;0;0;0;9;0;21942;0;0;0;0
20.03.20;18:50:00;1;3133;11189;0;2;0;28744;0;0;0;0;3;0;18343;0;0;0;0;4;0;27904;0;0;0;0;5;0;65628;2;0;0;0;0;0;6;0;49608;2;0;0;0;0;0;7;0;40641;0;0;0;0;8;0;40099;0;0;0;0;9;0;21942;0;0;0;0
20.03.20;18:45:00;1;3643;10925;0;2;0;28744;0;0;0;0;3;0;18343;0;0;0;0;4;0;27904;0;0;0;0;5;0;65628;2;0;0;0;0;0;6;0;49608;2;0;0;0;0;0;7;0;40641;0;0;0;0;8;0;40099;0;0;0;0;9;0;21942;0;0;0;0
20.03.20;18:40:00;1;3653;10631;0;2;0;28744;0;0;230;21;3;0;18343;6;0;299;26;4;0;27904;0;0;35;16;5;0;65628;2;0;0;0;0;0;6;0;49608;2;0;0;0;0;0;7;0;40641;0;0;0;0;8;0;40099;0;0;0;0;9;0;21942;0;0;0;0
20.03.20;18:35:00;1;2019;10375;0;2;0;28744;6;0;311;26;3;0;18343;6;0;373;27;4;0;27904;2;0;96;29;5;0;65628;2;0;0;0;0;0;6;0;49608;2;0;0;0;0;0;7;0;40641;0;0;0;0;8;0;40099;0;0;0;0;9;0;21942;0;0;0;0
20.03.20;18:30:00;1;876;10282;0;2;0;28744;6;0;349;26;3;0;18343;6;2;409;27;4;0;27904;1;0;150;29;5;0;65628;23;0;0;358;358;35;6;0;49608;23;4;5;269;360;33;7;0;40641;6;0;171;15;8;0;40099;0;0;246;20;9;0;21942;6;0;241;17
20.03.20;18:25:00;1;1051;10197;0;2;0;28744;6;0;371;27;3;2;18343;6;3;444;28;4;0;27904;1;0;191;30;5;0;65628;26;0;0;394;543;36;6;0;49608;23;8;1;181;523;34;7;0;40641;6;0;224;16;8;0;40099;6;0;374;26;9;0;21942;6;0;395;22
20.03.20;18:20:00;1;521;10110;0;2;0;28744;6;0;386;27;3;1;18343;6;4;471;28;4;0;27904;1;0;213;31;5;8;65628;4;0;0;397;621;36;6;0;49608;23;6;2;374;551;35;7;1;40641;6;4;396;27;8;0;40099;6;1;126;9;9;0;21942;6;1;355;18
20.03.20;18:15:00;1;489;10067;0;2;5;28744;6;12;391;28;3;0;18343;6;6;486;29;4;1;27904;3;1;199;31;5;75;65627;4;0;15;379;604;37;6;45;49608;1;9;36;486;464;36;7;1;40641;6;5;439;28;8;1;40099;6;7;438;27;9;0;21942;0;0;202;9
20.03.20;18:10:00;1;496;10026;0;2;67;28743;4;99;355;29;3;11;18343;4;22;497;29;4;23;27904;3;24;198;32;5;121;65620;4;21;34;379;604;37;6;84;49603;4;29;55;472;450;36;7;22;40641;6;37;422;28;8;7;40099;6;12;370;23;9;2;21942;6;6;511;23
20.03.20;18:05:00;1;288;9984;0;2;119;28737;4;158;373;30;3;64;18342;4;100;451;30;4;68;27902;3;71;197;32;5;162;65610;4;41;49;379;604;37;6;110;49596;4;41;68;472;450;36;7;80;40639;4;116;399;29;8;46;40098;4;70;303;22;9;0;21942;6;0;329;14
20.03.20;18:00:00;1;307;9960;0;2;188;28727;4;226;361;31;3;104;18337;4;139;403;30;4;128;27896;3;133;212;33;5;210;65596;4;70;78;379;604;38;6;144;49586;4;63;90;472;450;36;7;150;40632;4;190;420;29;8;102;40093;4;137;404;28;9;16;21942;6;26;501;24
20.03.20;17:55:00;1;275;9934;0;2;256;28712;4;299;365;32;3;150;18328;4;187;405;31;4;198;27886;5;206;220;33;5;256;65578;4;92;92;379;604;38;6;172;49574;4;80;97;472;450;36;7;234;40620;4;271;441;29;8;112;40085;4;137;303;23;9;46;21941;6;72;466;25
20.03.20;17:50:00;1;276;9911;0;2;358;28691;4;404;354;32;3;207;18316;4;243;398;31;4;280;27870;5;292;223;34;5;312;65556;4;127;115;379;604;38;6;214;49559;4;100;113;472;450;37;7;333;40600;4;375;436;30;8;167;40074;4;195;300;23;9;79;21937;4;113;469;25
20.03.20;17:45:00;1;279;9888;0;2;438;28661;4;486;354;33;3;250;18299;4;290;392;32;4;350;27847;5;364;222;35;5;367;65530;4;154;146;379;604;38;6;242;49542;4;84;103;472;450;37;7;422;40573;4;464;425;30;8;300;40056;4;344;446;30;9;96;21931;4;132;483;26
20.03.20;17:40:00;1;233;9865;0;2;548;28625;4;598;358;34;3;319;18278;4;363;405;32;4;448;27818;5;466;228;35;5;432;65499;4;188;175;376;604;38;6;295;49521;4;129;152;472;466;37;7;455;40526;0;492;360;24;8;312;40031;4;347;371;24;9;99;21923;4;124;398;21
20.03.20;17:35:00;1;233;9846;0;2;643;28579;4;698;358;35;3;384;18252;4;434;407;33;4;544;27780;5;567;233;36;5;509;65462;4;237;202;390;603;39;6;365;49496;4;142;174;492;535;37;7;674;40493;4;718;449;31;8;479;39999;4;528;451;30;9;145;21913;4;178;514;27
20.03.20;17:30:00;1;302;9825;0;2;797;28526;4;856;352;36;3;454;18220;4;503;399;33;4;647;27735;5;674;232;36;5;609;65419;4;276;251;394;620;39;6;462;49464;4;217;242;560;537;37;7;804;40436;4;861;449;31;8;539;39958;4;583;363;31;9;168;21901;4;205;523;27
20.03.20;17:25:00;1;287;9802;0;2;925;28459;4;995;374;37;3;540;18182;4;592;421;34;4;770;27681;5;802;232;37;5;717;65367;4;322;299;403;648;39;6;547;49425;4;251;276;572;546;37;7;369;40370;4;394;181;12;8;729;39913;4;776;362;31;9;193;21887;4;227;518;27
20.03.20;17:20:00;1;305;9778;0;2;1114;28382;4;1188;363;38;3;626;18137;4;680;417;34;4;907;27617;5;944;232;38;5;847;65307;4;397;356;385;649;39;6;654;49378;4;315;345;573;549;38;7;1164;40291;4;1233;461;32;8;402;39808;0;425;157;12;9;199;21870;4;243;496;28
20.03.20;17:15:00;1;288;9752;0;2;1200;28290;4;1280;371;39;3;669;18085;4;724;413;35;4;964;27542;5;1004;232;38;5;967;65236;4;478;397;395;635;40;6;738;49324;4;355;396;576;547;38;7;990;40195;4;1046;371;26;8;1073;39781;4;1136;407;32;9;147;21854;4;174;303;23
20.03.20;17:10:00;1;293;9728;0;2;1379;28190;4;1466;369;40;3;750;18029;4;809;412;35;4;1110;27461;5;1156;227;39;5;1166;65154;4;574;484;399;643;40;6;885;49261;4;399;420;572;547;38;7;471;40092;4;497;151;11;8;641;39670;0;680;212;16;9;295;21839;4;330;360;29
20.03.20;17:05:00;1;329;9703;0;2;1580;28075;4;1676;369;41;3;856;17967;4;917;408;36;4;1281;27370;5;1334;232;39;5;1389;65056;4;698;581;401;648;40;6;1050;49186;4;505;527;575;555;38;7;674;39924;0;711;184;13;8;967;39539;0;1023;266;20;9;407;21814;4;444;285;24
20.03.20;17:00:00;1;400;9674;0;2;1832;27944;4;1939;374;42;3;979;17896;4;1046;416;36;4;1473;27263;5;1535;228;40;5;1620;64937;4;828;687;404;665;41;6;1241;49097;4;625;641;582;556;38;7;1294;39814;0;1364;303;22;8;597;39462;4;625;148;11;9;477;21756;0;510;239;21
20.03.20;16:55:00;1;348;9641;0;2;1975;27792;4;2088;379;43;3;1063;17814;4;1132;417;37;4;1598;27141;5;1665;231;40;5;1814;64801;4;942;767;403;652;41;6;1385;48993;4;695;707;581;560;38;7;1661;39687;4;1747;365;27;8;2048;39313;4;2158;454;34;9;804;21718;4;859;367;32
20.03.20;16:50:00;1;338;9612;0;2;2098;27627;4;2220;385;44;3;1109;17726;4;1180;414;37;4;1693;27008;5;1763;231;41;5;1986;64649;4;1028;841;404;669;41;6;1520;48876;4;797;799;578;558;39;7;1464;39512;4;1544;304;23;8;732;39072;0;772;151;11;9;597;21650;4;636;259;22
20.03.20;16:45:00;1;312;9584;0;2;2200;27453;4;2322;379;45;3;1132;17634;4;1200;394;37;4;1776;26867;5;1850;230;41;5;2160;64483;4;1121;922;407;657;41;6;1649;48750;4;860;857;581;558;39;7;1869;39278;0;1965;360;28;8;1394;38883;0;1462;278;21;9;0;21460;0;0;0;0
20.03.20;16:40:00;1;302;9559;0;2;2336;27270;4;2471;384;45;3;1236;17539;4;1308;409;38;4;1896;26719;5;1975;228;42;5;2388;64301;4;1246;1025;407;652;42;6;1827;48611;4;909;920;576;556;39;7;2498;39136;4;2630;456;35;8;2483;38772;4;2609;458;35;9;719;21460;0;766;268;21
20.03.20;16:35:00;1;356;9534;0;2;2506;27077;4;2649;384;46;3;1335;17437;4;1413;410;38;4;2029;26562;5;2113;229;42;5;2614;64101;4;1380;1131;401;659;42;6;2001;48458;4;1002;1004;583;558;39;7;2156;38877;0;2268;361;28;8;1599;38567;4;1681;273;21;9;1322;21408;4;1408;469;35
20.03.20;16:30:00;1;276;9505;0;2;2513;26867;4;2657;384;46;3;1337;17326;4;1415;413;39;4;2045;26393;5;2130;230;42;5;2731;63881;4;1440;1181;406;655;42;6;2094;48290;4;1081;1077;579;551;39;7;1627;38707;4;1709;270;21;8;2153;38341;4;2263;364;28;9;1397;21296;4;1488;483;36
20.03.20;16:25:00;1;290;9481;0;2;2588;26658;4;2734;382;47;3;1376;17214;4;1457;413;39;4;2115;26222;5;2203;227;43;5;2891;63654;4;1538;1243;401;648;43;6;2207;48115;4;1147;1150;573;553;40;7;1156;38364;0;1209;181;14;8;1667;38114;4;1751;271;21;9;1486;21178;4;1582;494;37
20.03.20;16:20:00;1;677;9459;0;2;2603;26442;4;2749;378;47;3;1416;17100;4;1496;419;39;4;2136;26046;5;2225;226;43;5;3028;63411;4;1610;1309;399;655;43;6;2293;47931;4;1153;1161;570;550;40;7;2306;38245;4;2423;363;29;8;2289;37885;4;2405;359;29;9;1240;21056;4;1319;403;29
20.03.20;16:15:00;1;1445;9398;0;2;2719;26225;4;2865;372;47;3;1479;16982;4;1563;422;39;4;2235;25868;5;2328;225;43;5;3258;63158;4;1747;1410;404;656;43;6;2458;47738;4;1296;1276;566;546;40;7;2453;37957;0;2577;360;29;8;3004;37649;4;3155;446;37;9;1299;20930;4;1378;403;30
20.03.20;16:10:00;1;1435;9278;0;2;2856;25998;4;3015;376;48;3;1556;16858;4;1645;417;40;4;2379;25681;5;2478;225;44;5;3546;62883;4;1900;1546;403;649;44;6;2666;47532;4;1354;1333;563;542;40;7;2592;37755;4;2722;358;30;8;2567;37398;4;2696;359;30;9;1751;20792;4;1858;501;38
20.03.20;16:05:00;1;1456;9158;0;2;2895;25761;4;3054;370;48;3;1590;16729;4;1679;424;40;4;2426;25484;5;2527;226;44;5;3691;62588;4;1978;1607;403;652;44;6;2773;47309;4;1422;1407;564;542;40;7;3328;37484;4;3492;450;38;8;2631;37134;4;2759;353;30;9;1435;20611;0;1524;398;30
20.03.20;16:00:00;1;550;9033;0;2;2994;25519;4;3156;374;48;3;1646;16597;4;1738;420;40;4;2530;25281;5;2636;225;44;5;3929;62278;4;2118;1715;401;655;44;6;2953;47076;4;1543;1528;562;542;40;7;2862;37144;0;3007;376;31;8;3385;36860;4;3555;444;38;9;297;20497;4;315;83;6
20.03.20;15:55:00;1;272;8989;0;2;2932;25271;4;3101;372;49;3;1612;16460;4;1702;419;40;4;2480;25071;5;2584;227;44;5;3950;61950;4;2116;1722;401;652;44;6;2971;46830;4;1509;1486;564;543;41;7;2528;36811;0;2657;332;29;8;1669;36468;0;1755;225;19;9;913;20265;0;969;247;19
20.03.20;15:50:00;1;265;8963;0;2;3007;25025;4;3164;367;49;3;1614;16325;4;1701;411;41;4;2560;24863;5;2667;225;45;5;4113;61621;4;2217;1796;401;652;45;6;3094;46581;4;1571;1548;563;545;41;7;2874;36635;4;3020;374;32;8;3441;36293;4;3610;440;39;9;926;20199;4;980;246;19
20.03.20;15:45:00;1;977;8941;0;2;2907;24774;4;3063;369;49;3;1591;16191;4;1678;409;41;4;2480;24650;5;2584;225;45;5;4043;61277;4;2171;1761;401;651;45;6;3048;46323;4;1555;1508;563;541;41;7;2014;36228;0;2114;273;23;8;3368;36004;4;3539;448;39;9;1849;20042;4;1962;501;39
20.03.20;15:40:00;1;265;8849;0;2;2669;24533;4;2818;372;49;3;1518;16058;4;1606;422;41;4;2272;24444;5;2366;226;45;5;3776;60945;4;2024;1644;399;642;45;6;2821;46072;4;1463;1424;558;537;41;7;2400;36059;4;2523;358;31;8;2994;35724;4;3145;438;39;9;966;19887;4;1028;293;24
20.03.20;15:35:00;1;304;8827;0;2;3055;24311;4;3223;371;50;3;1745;15932;4;1842;420;42;4;2619;24254;5;2728;224;46;5;4394;60630;4;2371;1923;398;637;46;6;3308;45835;4;1691;1671;558;540;41;7;2057;35813;4;2162;267;24;8;1393;35376;0;1464;174;16;9;1507;19753;4;1599;396;32
20.03.20;15:30:00;1;298;8801;0;2;3410;24054;4;3598;369;51;3;1954;15786;4;2057;419;42;4;2951;24035;5;3074;226;46;5;4998;60257;4;2701;2189;402;647;46;6;3753;45555;4;1941;1889;559;541;41;7;3948;35520;4;4149;444;40;8;3909;35198;4;4103;442;40;9;1799;19566;0;1904;409;34
20.03.20;15:25:00;1;321;8776;0;2;3339;23770;4;3526;374;51;3;1930;15623;4;2034;424;43;4;2914;23789;5;3035;224;46;5;5025;59838;4;2730;2202;401;644;46;6;3782;45239;4;1943;1907;561;537;41;7;3161;35115;0;3318;352;32;8;3958;34878;4;4158;443;41;9;2180;19420;4;2311;493;41
20.03.20;15:20:00;1;322;8749;0;2;3408;23491;4;3595;369;52;3;2005;15462;4;2111;431;43;4;2972;23546;5;3096;224;47;5;5193;59421;4;2827;2282;399;635;46;6;3903;44925;4;2035;1968;557;539;42;7;2005;34861;4;2110;222;20;8;4012;34546;4;4213;437;41;9;1455;19237;4;1538;330;28
20.03.20;15:15:00;1;324;8722;0;2;3435;23207;4;3625;374;52;3;2035;15295;4;2143;427;43;4;3029;23298;5;3155;223;47;5;5372;58984;4;2915;2364;397;635;47;6;4031;44597;4;2077;2033;557;535;42;7;3312;34430;0;3477;352;32;8;3350;34213;4;3514;351;32;9;460;19054;4;487;96;8
20.03.20;15:10:00;1;312;8695;0;2;3392;22921;4;3579;366;52;3;1988;15126;4;2092;420;43;4;2969;23046;5;3092;221;47;5;5376;58538;4;2906;2352;396;630;47;6;4050;44261;4;2109;2043;554;531;42;7;3442;34188;4;3621;358;34;8;1355;33626;0;1423;148;14;9;2259;18861;4;2391;478;42
20.03.20;15:05:00;1;383;8669;0;2;3512;22638;4;3701;364;53;3;2063;14960;4;2171;422;44;4;3085;22799;5;3213;220;47;5;5626;58088;4;3069;2479;393;628;47;6;4241;43922;4;2185;2108;553;531;42;7;2574;33714;0;2702;259;25;8;4229;33515;4;4440;433;42;9;1856;18674;4;1962;387;34
20.03.20;15:00:00;1;346;8635;0;2;3555;22345;4;3748;365;53;3;2135;14788;4;2246;428;44;4;3182;22541;5;3314;222;48;5;5854;57614;4;3195;2585;396;630;47;6;4411;43565;4;2260;2189;549;533;42;7;3504;33488;4;3682;347;33;8;4324;33167;4;4541;431;42;9;1896;18482;4;2008;390;34
20.03.20;14:55:00;1;348;8604;0;2;3746;22046;4;3950;361;53;3;2256;14609;4;2372;428;44;4;3341;22274;5;3480;221;48;5;6184;57125;4;3399;2732;393;626;47;6;4647;43198;4;2404;2325;556;535;42;7;3637;33050;0;3814;343;33;8;1794;32628;0;1884;175;16;9;2479;18282;4;2618;476;44
20.03.20;14:50:00;1;351;8575;0;2;3735;21735;4;3939;364;53;3;2244;14421;4;2358;428;44;4;3302;21996;5;3439;220;48;5;6202;56610;4;3402;2737;393;627;48;6;4670;42810;4;2423;2340;546;538;42;7;3047;32751;4;3193;290;28;8;3807;32457;4;3996;362;35;9;2507;18074;4;2653;483;44